sat.trackr.live / text

‹ back to catalog

STARLINK-5934

NORAD 56017 · 2023-042AH

PAYLOAD ACTIVE UNKNOWN

§ Identity

Operator
Country
US
Launch date
2023-03-24
Launch site
AFETR
Launch vehicle
Mass (kg)
RCS (m²)

Purposes: comms

External: N2YO · Heavens-Above · Gunter

§ Orbital elements

Epoch: 2026-09-20T08:11:41.392320Z

Period
94.27 min
Inclination
43.0051°
Eccentricity
0.0001927
Mean motion
15.27578190 rev/d
Perigee alt
481.7 km
Apogee alt
484.4 km
Semi-major
6,861.2 km
B*
4.2013e-5
RAAN
26.0481°
Arg perigee
268.9441°
Mean anomaly
91.1190°
Rev number
19,280

§ Raw data

STARLINK-59341 56017U 23042AH  26263.34145130  .00000894  00000+0  42013-4 0  99942 56017  43.0051  26.0481 0001927 268.9441  91.1190 15.27578190192804

JSON: /api/v1/satellites/56017 · /tle

For live sub-satellite position, see the globe view (requires WebGL).

§ Visibility from observer

Set your observer location to see the next 7 days of passes ≥ 10°. The values pass through the URL so the page stays shareable.

No JS? Fill the form by hand. The geolocation button needs JavaScript.